ニート彗星

212P/NEAT (2008)

English version
Home page
Updated on April 25, 2009

---------------------------------------------------------------------

・ プロフィール

・ 写真集

・ 軌道要素

                    Epoch = 2008 Nov. 30.0 TT
     T = 2008 Dec.  3.2698 TT         Peri. =  15.0488
     e = 0.578876                     Node  =  98.9290  2000.0
     q = 1.654465 AU                  Incl. =  22.3979
       a =  3.928686 AU    n = 0.1265707    P =   7.79 years

・ 光度変化

        H = 16.0  G = 0.15

---------------------------------------------------------------------

軌道要素は、IAUC 9010に掲載されたものです。
光度グラフはComet for Windowsで作成したものです。

---------------------------------------------------------------------

Copyright(C) Seiichi Yoshida (comet@aerith.net). All rights reserved.